STARLINK-32011, 60030

Orbit data source: Space-Track

STARLINK-32011, 60030 is a payload satellite owned by SpaceX/Seattle (US) in LEO that was launched on Sat, 08 Jun 2024 UTC via an FALCON 9 launch vehicle from the Air Force Eastern Test Range (AFETR). Payload-class satellites include a variety of spacecraft equipped with specific instruments for various scientific and technological missions. These include communications satellites like Starlink; space stations such as the ISS; scientific satellites like the Hubble; Earth observation satellites from companies like Planet Labs, Umbra, and HawkEye 360; GPS; miniature CubeSats for education and research; and military/defense satellites.

Loading next visibility...
Identifier
60030, 2024-111Q
Orbit
LEO
Country
Flag of USUS
Related business
Manufacturer
SpaceX/Seattle
Mission
Operational Commercial Communications
Bus & Motor
STARLINK V2M, Unknown motor
Mass
730 kg wet, ~700 kg dry
Launch date (UTC)
2024-06-08 (2 years ago)
Launch vehicle
FALCON 9
Launch site
Air Force Eastern Test Range (AFETR)
Object type
Payload
Rocket body
Debris
Shape & HBR
Box + 2 Pan, 17.7 m
Radar Cross Section
33.884 m², Large (>1 m²)

Expand to show TLE details & history
Last TLE update: 3 days ago

TLE from 3 days ago
0 STARLINK-32011
1 60030U 24111Q   26170.72907591  .00000007  00000-0  11375-4 0  9992
2 60030  53.1614 319.7248 0002562 151.8669 208.2473 15.34398292114688
Epoch: 2026-06-19T17:29Z
TLE epoch observation values (Epoch: 2026-06-19T17:29:52.158Z)
Latitude
0.00001°
Longitude
149.30361°
Altitude
465.154 km
Speed
7.634 km/s
True Right ascension
21h 18m 53s
True Declination
0° 00' 00"
Sunlit
Object was in full shadow at epoch
Visualization orbit readout
Latitude
Unknown
Longitude
Unknown
Altitude
Unknown
Speed
Unknown
Apparent Right ascension
Unknown
Apparent Declination
Unknown
Sunlit
N/A
Visualization observer readout
Local Sidereal Time
21:27:15
Azimuth
Unknown
Elevation
Unknown
Doppler factor
Unknown
Orbital elements
Apogee altitude
464.718 km
Perigee altitude
461.212 km
Semi-major axis
6,841.102 km
Eccentricity
0.00026
Inclination
53.1614°
RAAN
319.7248°
Arg. of periapsis
151.8669°
True anomaly
208.23341°
Mean anomaly
208.2473°
Eccentric anomaly
208.24035°
Mean motion
3.83578 °/min
Orbital period
93.85 mins
BSTAR
0.000011375
Loading maneuver chart data...
Computing Atmospheric mass density...
Loading historical data...
Loading historical data...
Loading historical data...
Loading historical data...
Loading historical data...
Loading historical data...
Loading historical data...

Documentation

Showing up to 5 results
|